This is the latest recevied weather packets stored in our database for station/object N5JXS. If no packets are shown the sender has not sent any weather packets the latest 10 day(s).
| Time | Temp. | Humidity | Pressure | Rain* | Wind** | Luminosity | Snow |
|---|---|---|---|---|---|---|---|
| 1788299065 | 25.56° C | 31% | 1025.1 hPa | 0 mm | - | 110 W/m² | - |
| 1788298760 | 25.56° C | 31% | 1025.1 hPa | 0 mm | - | 124 W/m² | - |
| 1788298455 | 26.11° C | 30% | 1025 hPa | 0 mm | - | 77 W/m² | - |
| 1788298154 | 26.67° C | 29% | 1025.1 hPa | 0 mm | - | 517 W/m² | - |
| 1788297850 | 26.67° C | 29% | 1025.3 hPa | 0 mm | - | 567 W/m² | - |
| 1788297546 | 27.78° C | 27% | 1025.1 hPa | 0 mm | - | 98 W/m² | - |
| 1788297241 | 27.78° C | 28% | 1025.2 hPa | 0 mm | - | 111 W/m² | - |
| 1788296937 | 27.22° C | 30% | 1025.8 hPa | 0 mm | - | 571 W/m² | - |
| 1788296632 | 26.67° C | 30% | 1025.3 hPa | 0 mm | - | 578 W/m² | - |
| 1788296329 | 27.22° C | 28% | 1025.3 hPa | 0 mm | - | 118 W/m² | - |
| 1788296023 | 26.67° C | 28% | 1025.3 hPa | 0 mm | - | 636 W/m² | - |
| 1788295718 | 27.78° C | 27% | 1025.5 hPa | 0 mm | - | 670 W/m² | - |
| 1788295415 | 27.22° C | 29% | 1025.7 hPa | 0 mm | - | 669 W/m² | - |
| 1788295114 | 27.22° C | 30% | 1025.6 hPa | 0 mm | - | 668 W/m² | - |
| 1788294809 | 27.22° C | 30% | 1025.7 hPa | 0 mm | - | 658 W/m² | - |
| 1788294504 | 26.67° C | 30% | 1026 hPa | 0 mm | - | 658 W/m² | - |
| 1788294199 | 27.22° C | 30% | 1025.7 hPa | 0 mm | - | 637 W/m² | - |
| 1788293895 | 27.22° C | 30% | 1026 hPa | 0 mm | - | 660 W/m² | - |
| 1788293594 | 27.22° C | 28% | 1025.6 hPa | 0 mm | - | 660 W/m² | - |
| 1788293288 | 26.67° C | 28% | 1025.8 hPa | 0 mm | - | 693 W/m² | - |
| 1788292984 | 26.11° C | 32% | 1026.1 hPa | 0 mm | - | 714 W/m² | - |
| 1788292682 | 25.56° C | 32% | 1025.8 hPa | 0 mm | - | 714 W/m² | - |
| 1788292375 | 25.56° C | 32% | 1026.1 hPa | 0 mm | - | 552 W/m² | - |
| 1788292071 | 26.11° C | 33% | 1026.2 hPa | 0 mm | - | 649 W/m² | - |
| 1788291766 | 26.11° C | 32% | 1026.2 hPa | 0 mm | - | 622 W/m² | - |
* Rain latest hour (hover to see other rain measurements)
** Current wind speed in m/s (hover to see current wind gust speed)